When you browse on this site, cookies collect data to enhance your experience and personalize the content and advertising you see.
Visit our Privacy Policy to learn more. By continuing to use the site, you agree to this use of cookies and data.

Hourly Weather Georgetown

Today, 4 August, Tuesday

Time Temperature Precipitation Wind Pressure Humidity
00:00 +27°C° 0.4 mm 2 mps 761 mmHg 89%
01:00 +26°C° 0.4 mm 2 mps 760 mmHg 89%
02:00 +26°C° 0 mm 2 mps 760 mmHg 89%
03:00 +26°C° 0.4 mm 2 mps 760 mmHg 89%
04:00 +26°C° 0.4 mm 2 mps 760 mmHg 89%
05:00 +26°C° 0.4 mm 2 mps 760 mmHg 90%
06:00 +27°C° 0.1 mm 2 mps 760 mmHg 85%
07:00 +28°C° 0.1 mm 2 mps 761 mmHg 80%
08:00 +30°C° 0.1 mm 2 mps 761 mmHg 76%
09:00 +30°C° 0.6 mm 2 mps 761 mmHg 75%
10:00 +31°C° 0.6 mm 2 mps 761 mmHg 75%
11:00 +31°C° 0.6 mm 2 mps 761 mmHg 75%
12:00 +31°C° 0.5 mm 3 mps 760 mmHg 74%
13:00 +33°C° 0.5 mm 3 mps 759 mmHg 72%
14:00 +33°C° 0.5 mm 3 mps 759 mmHg 71%
15:00 +31°C° 0.1 mm 3 mps 758 mmHg 70%
16:00 +31°C° 0.1 mm 3 mps 758 mmHg 70%
17:00 +31°C° 0.1 mm 3 mps 758 mmHg 69%
18:00 +30°C° 0 mm 3 mps 759 mmHg 74%
19:00 +28°C° 0 mm 2 mps 759 mmHg 79%
20:00 +27°C° 0 mm 2 mps 760 mmHg 84%
21:00 +27°C° 0 mm 2 mps 760 mmHg 84%
22:00 +27°C° 0 mm 2 mps 760 mmHg 85%
23:00 +27°C° 0 mm 2 mps 761 mmHg 86%

Tomorrow, 5 August, Wednesday

Time Temperature Precipitation Wind Pressure Humidity
00:00 +27°C° 0.2 mm 2 mps 760 mmHg 87%
01:00 +27°C° 0.2 mm 1 mps 760 mmHg 88%
02:00 +27°C° 0.2 mm 1 mps 759 mmHg 89%
03:00 +26°C° 0.6 mm 1 mps 759 mmHg 89%
04:00 +26°C° 0.6 mm 1 mps 759 mmHg 90%
05:00 +26°C° 0.6 mm 1 mps 759 mmHg 91%
06:00 +26°C° 1.3 mm 1 mps 759 mmHg 92%
07:00 +27°C° 1.3 mm 1 mps 760 mmHg 92%
08:00 +27°C° 1.3 mm 1 mps 760 mmHg 93%
09:00 +28°C° 1 mm 1 mps 760 mmHg 89%
10:00 +29°C° 1 mm 1 mps 760 mmHg 86%
11:00 +30°C° 1 mm 1 mps 760 mmHg 82%
12:00 +30°C° 0.8 mm 1 mps 760 mmHg 81%
13:00 +30°C° 0.8 mm 2 mps 759 mmHg 81%
14:00 +30°C° 0.8 mm 2 mps 758 mmHg 81%
15:00 +30°C° 0.1 mm 2 mps 758 mmHg 79%
16:00 +30°C° 0.1 mm 2 mps 758 mmHg 77%
17:00 +30°C° 0.1 mm 2 mps 757 mmHg 75%
18:00 +29°C° 0 mm 2 mps 758 mmHg 80%
19:00 +28°C° 0 mm 2 mps 758 mmHg 84%
20:00 +27°C° 0 mm 2 mps 759 mmHg 89%
21:00 +27°C° 0 mm 2 mps 759 mmHg 89%
22:00 +27°C° 0 mm 2 mps 759 mmHg 90%
23:00 +27°C° 0 mm 2 mps 760 mmHg 90%

Day after tomorrow, 6 August, Thursday

Time Temperature Precipitation Wind Pressure Humidity
00:00 +27°C° 0 mm 2 mps 759 mmHg 91%
01:00 +26°C° 0 mm 2 mps 759 mmHg 91%
02:00 +26°C° 0 mm 1 mps 758 mmHg 92%
03:00 +26°C° 0.3 mm 2 mps 758 mmHg 92%
04:00 +26°C° 0.3 mm 2 mps 758 mmHg 93%
05:00 +26°C° 0.3 mm 2 mps 758 mmHg 94%
06:00 +27°C° 0.8 mm 2 mps 759 mmHg 93%
07:00 +27°C° 0.8 mm 2 mps 759 mmHg 92%
08:00 +28°C° 0.8 mm 2 mps 760 mmHg 91%
09:00 +29°C° 1.3 mm 3 mps 760 mmHg 85%
10:00 +30°C° 1.3 mm 3 mps 760 mmHg 80%
11:00 +31°C° 1.3 mm 3 mps 760 mmHg 74%
12:00 +31°C° 0.9 mm 3 mps 759 mmHg 75%
13:00 +31°C° 0.9 mm 3 mps 758 mmHg 77%
14:00 +31°C° 0.9 mm 3 mps 758 mmHg 78%
15:00 +31°C° 0.3 mm 3 mps 757 mmHg 77%
16:00 +31°C° 0.3 mm 3 mps 757 mmHg 77%
17:00 +30°C° 0.3 mm 3 mps 757 mmHg 76%
18:00 +29°C° 0 mm 3 mps 758 mmHg 80%
19:00 +28°C° 0 mm 3 mps 758 mmHg 83%
20:00 +27°C° 0 mm 3 mps 759 mmHg 87%
21:00 +27°C° 0 mm 3 mps 759 mmHg 87%
22:00 +27°C° 0 mm 3 mps 760 mmHg 88%
23:00 +27°C° 0 mm 3 mps 760 mmHg 88%

7 August, Friday

Time Temperature Precipitation Wind Pressure Humidity
00:00 +27°C° 0.6 mm 2 mps 760 mmHg 88%
01:00 +27°C° 0.6 mm 2 mps 759 mmHg 89%
02:00 +26°C° 0.6 mm 2 mps 759 mmHg 89%
03:00 +26°C° 0.2 mm 2 mps 759 mmHg 89%
04:00 +26°C° 0.2 mm 2 mps 759 mmHg 89%
05:00 +26°C° 0.2 mm 2 mps 759 mmHg 89%
06:00 +27°C° 0.4 mm 2 mps 759 mmHg 87%
07:00 +28°C° 0.4 mm 2 mps 760 mmHg 84%
08:00 +29°C° 0.4 mm 2 mps 760 mmHg 81%
09:00 +30°C° 1.3 mm 2 mps 760 mmHg 81%
10:00 +30°C° 1.3 mm 2 mps 760 mmHg 81%
11:00 +31°C° 1.3 mm 3 mps 760 mmHg 81%
12:00 +31°C° 1.1 mm 3 mps 760 mmHg 79%
13:00 +31°C° 1.1 mm 3 mps 759 mmHg 76%
14:00 +33°C° 1.1 mm 3 mps 758 mmHg 73%
15:00 +31°C° 0.2 mm 3 mps 758 mmHg 72%
16:00 +31°C° 0.2 mm 3 mps 758 mmHg 72%
17:00 +31°C° 0.2 mm 3 mps 758 mmHg 71%
18:00 +29°C° 0 mm 3 mps 758 mmHg 76%
19:00 +28°C° 0 mm 3 mps 759 mmHg 81%
20:00 +27°C° 0 mm 2 mps 759 mmHg 86%
21:00 +27°C° 0.1 mm 2 mps 760 mmHg 88%
22:00 +27°C° 0.1 mm 2 mps 760 mmHg 89%
23:00 +27°C° 0.1 mm 2 mps 760 mmHg 90%

8 August, Saturday

Time Temperature Precipitation Wind Pressure Humidity
00:00 +26°C° 0.1 mm 2 mps 760 mmHg 91%
01:00 +26°C° 0.1 mm 1 mps 759 mmHg 91%
02:00 +26°C° 0.1 mm 1 mps 759 mmHg 92%
03:00 +26°C° 0.1 mm 1 mps 759 mmHg 91%
04:00 +26°C° 0.1 mm 1 mps 759 mmHg 91%
05:00 +26°C° 0.1 mm 1 mps 759 mmHg 91%
06:00 +27°C° 0.1 mm 1 mps 760 mmHg 87%
07:00 +28°C° 0.1 mm 1 mps 760 mmHg 84%
08:00 +29°C° 0.1 mm 1 mps 761 mmHg 80%
09:00 +30°C° 1.3 mm 1 mps 761 mmHg 80%
10:00 +30°C° 1.3 mm 2 mps 761 mmHg 81%
11:00 +31°C° 1.3 mm 2 mps 761 mmHg 81%
12:00 +31°C° 0.7 mm 3 mps 760 mmHg 79%
13:00 +31°C° 0.7 mm 3 mps 759 mmHg 77%
14:00 +31°C° 0.7 mm 3 mps 758 mmHg 75%
15:00 +31°C° 0 mm 3 mps 758 mmHg 74%
16:00 +31°C° 0 mm 3 mps 758 mmHg 73%
17:00 +31°C° 0 mm 3 mps 758 mmHg 72%
18:00 +30°C° 0 mm 3 mps 759 mmHg 77%
19:00 +28°C° 0 mm 2 mps 759 mmHg 83%
20:00 +27°C° 0 mm 2 mps 760 mmHg 88%
21:00 +27°C° 0.6 mm 2 mps 760 mmHg 89%
22:00 +27°C° 0.6 mm 2 mps 760 mmHg 90%
23:00 +27°C° 0.6 mm 2 mps 760 mmHg 91%

9 August, Sunday

Time Temperature Precipitation Wind Pressure Humidity
00:00 +27°C° 2 mm 2 mps 760 mmHg 92%
01:00 +26°C° 2 mm 2 mps 759 mmHg 93%
02:00 +26°C° 2 mm 2 mps 759 mmHg 94%
03:00 +26°C° 1 mm 2 mps 759 mmHg 95%
04:00 +25°C° 1 mm 2 mps 759 mmHg 96%
05:00 +25°C° 1 mm 2 mps 759 mmHg 96%
06:00 +26°C° 0.5 mm 2 mps 759 mmHg 96%
07:00 +26°C° 0.5 mm 2 mps 760 mmHg 95%
08:00 +26°C° 0.5 mm 2 mps 760 mmHg 94%
09:00 +28°C° 1.1 mm 2 mps 760 mmHg 90%
10:00 +29°C° 1.1 mm 2 mps 760 mmHg 86%
11:00 +31°C° 1.1 mm 1 mps 760 mmHg 81%
12:00 +31°C° 1.4 mm 1 mps 759 mmHg 82%
13:00 +31°C° 1.4 mm 1 mps 758 mmHg 82%
14:00 +31°C° 1.4 mm 1 mps 758 mmHg 83%
15:00 +30°C° 0.4 mm 2 mps 757 mmHg 83%
16:00 +30°C° 0.4 mm 2 mps 757 mmHg 84%
17:00 +29°C° 0.4 mm 2 mps 757 mmHg 84%
18:00 +29°C° 0 mm 2 mps 758 mmHg 85%
19:00 +28°C° 0 mm 2 mps 758 mmHg 86%
20:00 +27°C° 0 mm 2 mps 759 mmHg 87%
21:00 +27°C° 0.1 mm 2 mps 759 mmHg 88%
22:00 +27°C° 0.1 mm 2 mps 759 mmHg 89%
23:00 +27°C° 0.1 mm 2 mps 759 mmHg 90%
Show more